This is the latest recevied weather packets stored in our database for station/object K5SVV. If no packets are shown the sender has not sent any weather packets the latest 10 day(s).
| Time | Temp. | Humidity | Pressure | Rain* | Wind** | Luminosity | Snow |
|---|---|---|---|---|---|---|---|
| 1788378648 | 35.56° C | 46% | 1012.3 hPa | 0 mm | - | 694 W/m² | - |
| 1788378342 | 35.56° C | 47% | 1012.4 hPa | 0 mm | - | 697 W/m² | - |
| 1788378038 | 36.11° C | 47% | 1012.4 hPa | 0 mm | - | 703 W/m² | - |
| 1788377734 | 35.56° C | 46% | 1012.4 hPa | 0 mm | - | 693 W/m² | - |
| 1788377435 | 35.56° C | 46% | 1012.4 hPa | 0 mm | - | 694 W/m² | - |
| 1788377131 | 35.56° C | 45% | 1012.7 hPa | 0 mm | - | 702 W/m² | - |
| 1788376830 | 35.56° C | 45% | 1012.8 hPa | 0 mm | - | 713 W/m² | - |
| 1788376526 | 35.56° C | 44% | 1013 hPa | 0 mm | - | 717 W/m² | - |
| 1788376220 | 35° C | 48% | 1012.9 hPa | 0 mm | - | 700 W/m² | - |
| 1788375916 | 35° C | 50% | 1013.3 hPa | 0 mm | - | 729 W/m² | - |
| 1788375612 | 35° C | 50% | 1013.4 hPa | 0 mm | - | 754 W/m² | - |
| 1788375308 | 34.44° C | 49% | 1013.3 hPa | 0 mm | - | 738 W/m² | - |
| 1788375003 | 34.44° C | 51% | 1013.3 hPa | 0 mm | - | 736 W/m² | - |
| 1788374698 | 35° C | 50% | 1013.3 hPa | 0 mm | - | 731 W/m² | - |
| 1788374393 | 35.56° C | 48% | 1013.5 hPa | 0 mm | - | 761 W/m² | - |
| 1788374089 | 35.56° C | 47% | 1013.6 hPa | 0 mm | - | 757 W/m² | - |
| 1788373785 | 35.56° C | 47% | 1013.6 hPa | 0 mm | - | 765 W/m² | - |
| 1788373481 | 35° C | 48% | 1013.7 hPa | 0 mm | - | 769 W/m² | - |
| 1788373177 | 35° C | 48% | 1013.7 hPa | 0 mm | - | 758 W/m² | - |
| 1788372872 | 35° C | 48% | 1013.8 hPa | 0 mm | - | 754 W/m² | - |
| 1788372566 | 35° C | 48% | 1014 hPa | 0 mm | - | 757 W/m² | - |
| 1788372262 | 35° C | 50% | 1014.1 hPa | 0 mm | - | 765 W/m² | - |
| 1788371952 | 35° C | 49% | 1014.1 hPa | 0 mm | - | 773 W/m² | - |
| 1788371646 | 34.44° C | 50% | 1014.6 hPa | 0 mm | - | 760 W/m² | - |
| 1788371341 | 33.89° C | 51% | 1014.6 hPa | 0 mm | - | 737 W/m² | - |
* Rain latest hour (hover to see other rain measurements)
** Current wind speed in m/s (hover to see current wind gust speed)